�N����,����,�~����,�C��,���x,�C��,����,���ϕ���,�ő�u�ԕ���,�ő厞����,���˗�,�I�_���x,�n�����x,�ő啗���N��,DTYPE
"23/08/28","00:10",0.0,25.9,87.2,1001.5,344.2,1.5,2.5,351.0,0.00,23.6,26.7,"00:05:28",1
"23/08/28","00:20",0.0,25.8,87.3,1001.5,344.5,1.2,2.6,332.0,0.00,23.6,26.7,"00:19:52",1
"23/08/28","00:30",0.0,25.7,87.6,1001.7,342.5,1.3,2.6,341.0,0.00,23.5,26.7,"00:20:16",1
"23/08/28","00:40",0.0,25.6,87.8,1001.9,334.1,1.7,3.2,342.3,0.00,23.5,26.6,"00:35:52",1
"23/08/28","00:50",0.0,25.6,87.9,1001.5,332.4,1.7,2.9,348.0,0.00,23.5,26.5,"00:45:52",1
"23/08/28","01:00",0.0,25.6,88.0,1001.2,334.1,1.7,3.3,292.1,0.00,23.5,26.5,"00:59:20",1
"23/08/28","01:10",0.0,25.5,88.2,1001.5,340.2,1.3,2.7,344.3,0.00,23.4,26.5,"01:09:36",1
"23/08/28","01:20",0.0,25.4,88.4,1001.2,347.8,1.0,1.9,338.3,0.00,23.4,26.5,"01:11:36",1
"23/08/28","01:30",0.0,25.4,88.7,1001.5,350.1,1.2,2.0,344.3,0.00,23.4,26.6,"01:26:16",1
"23/08/28","01:40",0.0,25.3,89.0,1001.2,342.9,1.2,2.4,2.1,0.00,23.4,26.7,"01:33:04",1
"23/08/28","01:50",0.0,25.1,89.2,1000.8,345.3,1.1,2.0,343.6,0.00,23.2,26.5,"01:47:52",1
"23/08/28","02:00",0.0,25.2,89.5,1001.0,334.5,1.6,3.1,341.2,0.00,23.4,26.4,"01:56:16",1
"23/08/28","02:10",0.0,25.0,89.6,1001.0,336.8,1.3,2.7,334.5,0.00,23.2,26.2,"02:01:12",1
"23/08/28","02:20",0.0,25.0,89.9,1001.2,335.0,1.3,2.5,333.9,0.00,23.3,26.3,"02:18:32",1
"23/08/28","02:30",0.0,24.8,90.0,1001.2,339.7,1.2,2.1,321.2,0.00,23.1,26.6,"02:28:48",1
"23/08/28","02:40",0.0,24.8,90.2,1001.0,342.2,1.0,1.9,342.0,0.00,23.1,26.3,"02:39:52",1
"23/08/28","02:50",0.0,24.8,90.5,1001.2,340.3,1.1,2.1,347.3,0.00,23.2,26.4,"02:47:44",1
"23/08/28","03:00",0.0,24.8,90.7,1001.5,335.5,1.2,2.0,338.1,0.00,23.2,26.2,"02:50:08",1
"23/08/28","03:10",0.0,24.8,90.9,1001.2,334.7,1.5,2.8,349.4,0.00,23.3,26.3,"03:09:12",1
"23/08/28","03:20",0.0,24.8,91.0,1001.2,339.4,1.5,2.5,340.8,0.00,23.3,26.2,"03:10:24",1
"23/08/28","03:30",0.0,24.7,91.2,1001.5,340.1,1.2,2.2,352.0,0.00,23.2,26.2,"03:24:16",1
"23/08/28","03:40",0.0,24.7,91.3,1001.5,337.1,1.3,2.4,349.7,0.00,23.2,26.3,"03:39:20",1
"23/08/28","03:50",0.0,24.6,91.5,1001.5,340.4,1.5,2.9,345.7,0.00,23.2,26.1,"03:47:04",1
"23/08/28","04:00",0.0,24.6,91.6,1001.9,343.2,1.2,2.4,352.3,0.00,23.2,26.1,"03:56:40",1
"23/08/28","04:10",0.0,24.2,91.7,1001.7,338.6,1.2,2.1,339.0,0.00,22.8,26.1,"04:02:40",1
"23/08/28","04:20",0.0,24.1,91.8,1001.9,331.5,1.2,2.1,326.0,0.00,22.7,26.3,"04:12:40",1
"23/08/28","04:30",0.0,24.0,91.8,1001.9,337.3,1.1,2.1,326.0,0.00,22.6,26.0,"04:22:32",1
"23/08/28","04:40",0.0,23.9,92.0,1002.2,339.0,1.2,2.1,344.7,0.00,22.6,26.3,"04:39:20",1
"23/08/28","04:50",0.0,23.9,92.2,1001.9,341.7,1.2,1.8,345.4,0.00,22.6,26.2,"04:42:48",1
"23/08/28","05:00",0.0,24.1,92.2,1002.2,345.1,1.1,1.9,352.8,0.00,22.8,26.1,"04:52:24",1
"23/08/28","05:10",0.0,24.0,92.3,1002.6,341.3,1.0,1.9,344.3,0.00,22.7,26.2,"05:08:40",1
"23/08/28","05:20",0.0,24.1,92.5,1002.4,341.2,1.2,2.4,347.6,0.00,22.8,26.0,"05:17:12",1
"23/08/28","05:30",0.0,24.1,92.4,1002.9,340.3,1.1,1.9,347.2,0.00,22.8,26.0,"05:21:36",1
"23/08/28","05:40",0.0,23.9,92.6,1003.1,344.5,1.2,2.2,346.3,0.00,22.7,25.9,"05:33:04",1
"23/08/28","05:50",0.0,24.0,92.7,1002.9,341.0,1.1,1.8,357.4,0.00,22.8,25.9,"05:44:08",1
"23/08/28","06:00",0.0,24.1,92.7,1002.9,339.3,1.2,2.4,357.3,0.00,22.9,25.9,"05:50:40",1
"23/08/28","06:10",0.0,24.1,92.7,1003.1,343.3,1.1,1.9,341.0,0.00,22.9,25.9,"06:07:12",1
"23/08/28","06:20",0.0,24.3,92.8,1003.1,344.8,1.1,2.0,342.9,0.00,23.1,26.0,"06:10:48",1
"23/08/28","06:30",0.0,24.5,92.8,1003.1,338.8,1.1,1.9,346.6,0.01,23.3,25.9,"06:25:04",1
"23/08/28","06:40",0.0,24.7,92.6,1003.4,344.9,1.0,1.9,349.3,0.02,23.5,25.8,"06:35:20",1
"23/08/28","06:50",0.0,24.9,92.4,1003.4,350.0,1.0,1.8,342.6,0.02,23.6,25.7,"06:46:24",1
"23/08/28","07:00",0.0,25.1,92.1,1002.9,354.9,0.8,1.8,5.7,0.03,23.8,25.7,"06:51:20",1
"23/08/28","07:10",0.0,25.4,91.6,1003.1,344.1,0.8,1.4,329.6,0.04,24.0,25.9,"07:01:52",1
"23/08/28","07:20",0.0,25.6,91.1,1003.4,333.6,1.0,1.8,332.1,0.04,24.1,25.8,"07:12:00",1
"23/08/28","07:30",0.0,25.7,90.7,1003.1,329.9,1.3,2.8,348.6,0.04,24.1,25.9,"07:27:44",1
"23/08/28","07:40",0.0,25.7,90.4,1002.9,336.6,1.3,2.4,343.0,0.03,24.0,26.0,"07:37:44",1
"23/08/28","07:50",0.0,25.7,90.0,1002.9,325.6,1.7,2.8,344.9,0.05,24.0,25.7,"07:48:00",1
"23/08/28","08:00",0.0,25.8,89.9,1002.6,332.2,1.8,3.9,347.8,0.06,24.1,25.8,"07:54:16",1
"23/08/28","08:10",0.0,26.0,89.5,1003.1,332.5,1.3,2.8,316.4,0.06,24.2,25.6,"08:00:40",1
"23/08/28","08:20",0.0,26.2,89.0,1003.1,349.1,1.0,1.7,318.2,0.07,24.3,25.6,"08:10:32",1
"23/08/28","08:30",0.0,26.6,88.4,1002.9,10.6,0.7,1.9,357.5,0.08,24.6,25.8,"08:22:40",1
"23/08/28","08:40",0.0,27.0,87.6,1002.9,355.9,0.5,1.3,342.3,0.09,24.8,25.7,"08:37:36",1
"23/08/28","08:50",0.0,27.3,86.4,1002.9,23.0,0.6,1.1,19.7,0.11,24.9,25.8,"08:46:40",1
"23/08/28","09:00",0.0,27.8,84.9,1001.9,3.9,0.6,1.8,355.9,0.16,25.1,26.0,"08:58:56",1
"23/08/28","09:10",0.0,28.8,83.8,1002.6,225.0,0.6,1.8,233.7,0.23,25.8,26.0,"09:04:32",1
"23/08/28","09:20",0.0,29.2,81.3,1003.4,146.2,0.6,1.7,328.6,0.30,25.7,25.9,"09:11:20",1
"23/08/28","09:30",0.0,29.7,77.6,1003.8,139.1,0.7,1.7,37.4,0.24,25.4,25.8,"09:21:44",1
"23/08/28","09:40",0.0,30.4,75.8,1004.1,34.2,0.6,1.6,11.9,0.37,25.7,25.9,"09:33:12",1
"23/08/28","09:50",0.0,30.9,74.9,1004.1,320.3,1.0,2.0,357.9,0.43,26.0,26.1,"09:41:20",1
"23/08/28","10:00",0.0,30.7,72.3,1004.5,358.9,1.0,2.4,345.6,0.39,25.2,25.9,"09:55:04",1
"23/08/28","10:10",0.0,31.0,71.2,1004.1,33.9,0.8,2.1,350.3,0.35,25.2,25.9,"10:02:56",1
"23/08/28","10:20",0.0,31.0,69.7,1004.3,51.1,0.8,2.2,14.5,0.22,24.9,26.2,"10:17:52",1
"23/08/28","10:30",0.0,31.0,69.6,1003.8,63.1,0.7,1.7,33.6,0.18,24.8,26.1,"10:29:44",1
"23/08/28","10:40",0.0,31.6,69.6,1003.8,85.2,0.7,1.7,51.4,0.34,25.4,26.0,"10:34:24",1
"23/08/28","10:50",0.0,32.2,68.0,1004.3,357.3,0.6,1.8,22.7,0.47,25.6,26.1,"10:42:16",1
"23/08/28","11:00",0.0,32.9,65.1,1004.5,145.4,0.6,1.6,355.7,0.50,25.5,26.2,"10:55:28",1
"23/08/28","11:10",0.0,32.5,61.7,1004.8,2.7,0.8,2.2,349.4,0.32,24.2,26.3,"11:05:12",1
"23/08/28","11:20",0.0,33.2,62.8,1004.5,41.4,0.6,1.9,7.3,0.38,25.2,26.2,"11:13:28",1
"23/08/28","11:30",0.0,33.7,60.8,1004.5,356.5,0.5,1.3,49.6,0.40,25.1,26.6,"11:20:08",1
"23/08/28","11:40",0.0,33.7,57.7,1005.0,49.1,0.7,2.0,101.1,0.39,24.2,26.4,"11:31:20",1
"23/08/28","11:50",0.0,33.1,57.2,1004.8,220.7,0.7,1.7,333.1,0.31,23.5,26.6,"11:47:04",1
"23/08/28","12:00",0.0,33.2,57.7,1004.3,244.5,0.5,1.1,216.8,0.36,23.8,26.7,"11:50:08",1
"23/08/28","12:10",0.0,34.3,58.3,1004.5,120.7,0.3,1.2,47.8,0.41,25.0,26.8,"12:03:44",1
"23/08/28","12:20",0.0,34.5,53.5,1004.5,350.7,0.5,1.6,56.4,0.46,23.7,26.6,"12:10:48",1
"23/08/28","12:30",0.0,34.9,56.7,1004.8,294.5,0.6,1.4,320.3,0.48,25.1,26.8,"12:26:00",1
"23/08/28","12:40",0.0,34.7,54.5,1004.8,346.8,0.8,2.1,347.6,0.44,24.2,27.0,"12:34:00",1
"23/08/28","12:50",0.0,34.6,52.2,1005.0,247.7,0.7,2.1,349.1,0.46,23.4,27.1,"12:48:56",1
"23/08/28","13:00",0.0,35.0,53.7,1004.8,261.8,1.0,2.4,358.1,0.47,24.2,27.0,"12:50:48",1
"23/08/28","13:10",0.0,34.7,48.0,1004.5,198.9,1.1,2.6,191.9,0.42,22.1,27.2,"13:04:48",1
"23/08/28","13:20",0.0,35.2,52.2,1004.3,224.8,0.7,2.0,232.1,0.42,24.0,27.3,"13:17:44",1
"23/08/28","13:30",0.0,35.1,49.2,1004.3,247.5,0.6,2.0,325.9,0.40,22.9,27.3,"13:20:16",1
"23/08/28","13:40",0.0,34.9,48.8,1004.5,240.6,0.8,2.4,228.5,0.30,22.6,27.0,"13:35:36",1
"23/08/28","13:50",0.0,34.9,54.0,1004.1,180.9,1.1,2.7,210.2,0.31,24.2,27.6,"13:46:40",1
"23/08/28","14:00",0.0,35.0,52.2,1004.3,230.3,0.7,1.9,235.2,0.34,23.8,27.5,"13:58:16",1
"23/08/28","14:10",0.0,34.9,50.4,1004.1,313.1,1.0,2.8,317.6,0.32,23.1,27.6,"14:03:28",1
"23/08/28","14:20",0.0,34.6,51.5,1003.6,251.6,1.0,2.2,236.4,0.25,23.2,27.4,"14:16:24",1
"23/08/28","14:30",0.0,35.2,51.9,1004.1,233.3,0.7,2.5,222.8,0.32,23.9,27.6,"14:20:48",1
"23/08/28","14:40",0.0,34.6,51.4,1003.6,211.4,2.0,4.2,219.9,0.29,23.2,27.7,"14:39:44",1
"23/08/28","14:50",0.0,34.4,52.7,1003.6,195.4,2.0,4.0,218.9,0.28,23.4,27.5,"14:46:48",1
"23/08/28","15:00",0.0,34.5,57.5,1003.6,190.4,1.5,3.3,223.0,0.24,24.9,27.8,"14:50:08",1
"23/08/28","15:10",0.0,34.7,55.9,1003.8,184.7,1.0,2.6,227.1,0.26,24.6,27.7,"15:07:20",1
"23/08/28","15:20",0.0,35.0,53.3,1003.4,249.9,1.1,2.8,229.6,0.22,24.1,27.8,"15:15:20",1
"23/08/28","15:30",0.0,35.2,49.7,1003.4,281.0,0.8,1.9,329.9,0.25,23.1,28.0,"15:25:20",1
"23/08/28","15:40",0.0,35.3,48.9,1003.1,260.0,1.0,4.4,210.3,0.21,23.0,27.8,"15:30:48",1
"23/08/28","15:50",0.0,35.0,51.4,1003.1,325.0,1.1,3.1,347.8,0.18,23.5,28.1,"15:42:40",1
"23/08/28","16:00",0.0,34.6,50.4,1003.1,314.1,1.0,2.6,345.6,0.13,22.8,27.9,"15:51:52",1
"23/08/28","16:10",0.0,34.6,48.4,1003.1,334.1,1.0,2.2,354.9,0.15,22.2,27.8,"16:06:12",1
"23/08/28","16:20",0.0,35.2,46.6,1003.1,304.4,1.0,2.2,354.5,0.18,22.1,27.9,"16:10:08",1
"23/08/28","16:30",0.0,35.5,46.6,1002.9,321.8,0.8,2.2,350.1,0.15,22.4,27.9,"16:23:36",1
"23/08/28","16:40",0.0,35.2,47.4,1002.4,348.3,1.1,2.2,343.1,0.13,22.4,28.0,"16:32:08",1
"23/08/28","16:50",0.0,34.9,57.1,1002.6,106.4,1.0,2.6,114.1,0.11,25.2,28.1,"16:44:32",1
"23/08/28","17:00",0.0,34.4,57.6,1002.9,54.8,1.0,2.2,121.5,0.09,24.9,27.7,"16:52:40",1
"23/08/28","17:10",0.0,34.5,59.9,1002.9,11.3,0.6,1.7,352.4,0.07,25.6,28.0,"17:01:04",1
"23/08/28","17:20",0.0,34.2,58.2,1003.1,348.1,0.8,2.2,351.2,0.05,24.8,27.9,"17:12:24",1
"23/08/28","17:30",0.0,33.5,59.4,1002.9,346.8,0.8,2.7,337.1,0.03,24.5,27.9,"17:23:04",1
"23/08/28","17:40",0.0,33.0,62.4,1002.6,350.4,0.7,1.8,351.7,0.02,24.9,28.0,"17:38:32",1
"23/08/28","17:50",0.0,32.1,65.0,1002.4,347.2,0.8,1.7,339.1,0.01,24.7,27.8,"17:44:32",1
"23/08/28","18:00",0.0,31.2,66.5,1002.2,355.1,0.7,1.6,344.3,0.00,24.3,27.8,"17:51:36",1
"23/08/28","18:10",0.0,30.7,68.3,1002.2,356.6,0.6,1.4,1.3,0.00,24.2,28.0,"18:08:48",1
"23/08/28","18:20",0.0,30.1,70.5,1002.2,332.1,0.5,1.4,351.3,0.00,24.2,27.8,"18:10:48",1
"23/08/28","18:30",0.0,29.6,72.1,1002.2,327.2,0.1,0.5,1.4,0.00,24.1,27.8,"18:21:36",1
"23/08/28","18:40",0.0,29.4,73.2,1001.9,357.3,0.1,1.0,241.9,0.00,24.1,27.7,"18:30:40",1
"23/08/28","18:50",0.0,29.0,72.6,1002.6,160.5,2.5,5.2,202.4,0.00,23.6,27.7,"18:49:04",1
"23/08/28","19:00",0.0,28.2,74.0,1002.9,201.7,3.6,9.0,224.2,0.00,23.2,27.7,"18:53:28",1
"23/08/28","19:10",0.0,27.9,75.2,1002.9,176.6,1.8,5.8,238.5,0.00,23.1,27.8,"19:00:24",1
"23/08/28","19:20",0.0,27.7,76.0,1003.1,102.0,0.8,2.5,166.9,0.00,23.1,27.5,"19:10:16",1
"23/08/28","19:30",0.0,27.5,76.6,1003.1,82.9,0.7,1.3,109.9,0.00,23.1,27.6,"19:22:24",1
"23/08/28","19:40",0.0,27.3,77.4,1003.4,101.2,0.7,2.2,159.8,0.00,23.0,27.5,"19:37:28",1
"23/08/28","19:50",0.0,27.1,78.4,1003.6,101.5,0.5,1.7,344.5,0.00,23.1,27.6,"19:40:02",1
"23/08/28","20:00",0.0,26.9,80.1,1003.8,348.2,1.1,1.8,339.0,0.00,23.2,27.4,"19:52:32",1
"23/08/28","20:10",0.0,26.5,81.7,1003.8,346.8,1.0,1.7,351.4,0.00,23.2,27.6,"20:02:24",1
"23/08/28","20:20",0.0,26.3,82.7,1004.3,342.9,1.1,1.7,343.3,0.00,23.2,27.4,"20:10:48",1
"23/08/28","20:30",0.0,26.0,83.4,1004.3,338.4,0.7,1.6,344.9,0.00,23.0,27.3,"20:21:12",1
"23/08/28","20:40",0.0,26.0,83.9,1004.3,295.2,0.7,1.7,342.5,0.00,23.1,27.4,"20:32:00",1
"23/08/28","20:50",0.0,25.9,84.1,1004.5,313.9,0.7,1.8,347.7,0.00,23.0,27.2,"20:41:52",1
"23/08/28","21:00",0.0,26.0,84.1,1004.8,313.8,0.8,1.3,329.9,0.00,23.1,27.1,"20:56:56",1
"23/08/28","21:10",0.0,26.0,84.3,1004.5,307.0,0.7,1.2,260.7,0.00,23.2,27.1,"21:03:12",1
"23/08/28","21:20",0.0,26.0,84.5,1005.0,317.8,1.2,1.6,344.7,0.00,23.2,27.2,"21:10:32",1
"23/08/28","21:30",0.0,26.0,84.5,1004.8,329.1,1.0,1.7,309.3,0.00,23.2,27.1,"21:23:36",1
"23/08/28","21:40",0.0,25.8,84.8,1004.8,320.7,0.6,1.7,331.3,0.00,23.1,27.0,"21:30:16",1
"23/08/28","21:50",0.0,25.8,85.0,1005.0,310.7,1.0,1.4,328.1,0.00,23.1,26.8,"21:40:56",1
"23/08/28","22:00",0.0,25.8,85.0,1005.0,302.6,0.8,1.4,309.1,0.00,23.1,26.9,"21:55:52",1
"23/08/28","22:10",0.0,25.9,85.1,1005.0,313.2,0.8,1.3,323.1,0.00,23.2,26.8,"22:08:00",1
"23/08/28","22:20",0.0,25.7,85.3,1005.0,325.1,1.0,1.8,334.4,0.00,23.1,26.9,"22:14:08",1
"23/08/28","22:30",0.0,25.6,85.6,1005.0,340.9,0.7,1.4,343.3,0.00,23.0,26.9,"22:22:56",1
"23/08/28","22:40",0.0,25.4,86.0,1005.2,260.3,0.3,0.8,317.5,0.00,22.9,26.8,"22:32:08",1
"23/08/28","22:50",0.0,25.2,86.4,1005.2,271.0,0.3,0.9,277.3,0.00,22.8,26.9,"22:47:28",1
"23/08/28","23:00",0.0,25.3,86.8,1005.2,331.6,0.8,1.2,336.8,0.00,23.0,26.9,"22:53:04",1
"23/08/28","23:10",0.0,25.0,87.2,1005.5,309.8,0.5,1.1,356.0,0.00,22.8,26.8,"23:00:08",1
"23/08/28","23:20",0.0,24.9,87.6,1005.0,301.0,0.3,1.0,337.6,0.00,22.7,26.7,"23:19:36",1
"23/08/28","23:30",0.0,24.6,87.9,1005.5,317.4,0.6,0.9,337.2,0.00,22.5,26.8,"23:20:08",1
"23/08/28","23:40",0.0,24.7,88.5,1005.2,301.1,0.7,1.0,312.2,0.00,22.7,26.6,"23:34:56",1
"23/08/28","23:50",0.0,24.7,88.8,1005.5,302.1,0.6,1.1,322.6,0.00,22.8,26.7,"23:40:08",1
"23/08/28","24:00",0.0,24.6,89.1,1005.2,324.3,0.6,1.2,326.9,0.00,22.7,26.4,"23:58:16",1
